STARLINK-2017 (47351 NORAD) Tracking and Keplerian Element Data

This shows tracking and keplerian element data for the satellite.

Feedback or suggestion? Click here.




ElementValue
Catalog47351
NameSTARLINK-2017
Epoch Orbit177
Epoch Day105.91667824
Epoch Year2021
RAAN152.3633
Inclination53.053
Eccentricity0.0004085
Argument of Perigee10.5446
Mean Anonmoly350.9754
Mean Motion15.62769934
Decay Rate-0.0001685
L11 47351U 21005C 21105.91667824 -.00016850 00000-0 -17834-3 0 9998
L22 47351 53.0530 152.3633 0004085 10.5446 350.9754 15.62769934 1778

Live tracking and technical data element details for STARLINK-2017 (NORAD 47351). STARLINK-2017 can be tracked NOW for your location showing map with azimuth and elevation plus other details from your city location.

Track the satellite on the map from your city or location and see movement details for azimuth, elevation, latitude, longitude, range, height, and movement on the map or in text.







IsCatalogInMostPopularTable: catalog: 47351, numindb: 13
Update: records affected: 1



GetName: 47351 STARLINK-2017

Hit Count: updated at: Fri, 16 Apr 2021 10:58:54 GMT